Date String (YYYY-MM-DD hh:mm:ss) UTC,Instrument flags,Ambient pressure (hPa),Sample flow (lpm),Bypass flow (lpm),Sample temperature (°C),Ambient temperature (°C),ASC tube jacket temperature (°C),LED temperature (°C),Box temperature (°C),Sample RH (%),Mass concentration (μg/m³),Mass concentration (μg/m³)
DateTimeUTC,F1_M11,P_M11,Q1_M11,Q2_M11,T1_M11,T2_M11,T3_M11,T4_M11,T5_M11,U1_M11,X0_M11,X2_M11
2021-08-15 10:00:00,,0831.0,4.99,0.00,29.4,27.8,00.0,38.5,31.1,25.5,0024.19,0012.15
2021-08-15 10:01:00,,0831.0,5.00,0.00,29.4,28.0,00.0,38.5,31.2,25.3,0022.29,0012.15
2021-08-15 10:02:00,,0831.0,5.00,0.00,29.4,28.1,00.0,38.5,31.2,25.2,0022.26,0012.15
2021-08-15 10:03:00,,0830.9,5.01,0.00,29.4,28.2,00.0,38.5,31.3,25.1,0022.83,0012.14
2021-08-15 10:04:00,,0830.9,5.00,0.00,29.5,28.3,00.0,38.5,31.3,25.1,0023.01,0012.13
2021-08-15 10:05:00,,0830.9,4.99,0.00,29.5,28.4,00.0,38.6,31.3,25.0,0023.22,0012.12
2021-08-15 10:06:00,,0830.9,5.02,0.00,29.5,28.5,00.0,38.6,31.4,24.7,0023.42,0012.11
2021-08-15 10:07:00,,0830.9,5.00,0.00,29.6,28.6,00.0,38.6,31.4,24.6,0023.36,0012.08
2021-08-15 10:08:00,,0830.9,4.99,0.00,29.6,28.6,00.0,38.6,31.4,24.4,0023.24,0012.04
2021-08-15 10:09:00,,0830.9,5.00,0.00,29.6,28.6,00.0,38.6,31.4,24.3,0022.99,0012.01
2021-08-15 10:10:00,,0831.0,5.00,0.00,29.7,28.7,00.0,38.6,31.5,24.4,0022.54,0011.95
2021-08-15 10:11:00,,0831.0,5.01,0.00,29.7,28.7,00.0,38.7,31.5,24.3,0022.56,0011.92
2021-08-15 10:12:00,,0830.9,4.98,0.00,29.7,28.8,00.0,38.7,31.5,24.3,0022.33,0011.87
2021-08-15 10:13:00,,0830.9,5.01,0.00,29.7,28.8,00.0,38.7,31.5,24.1,0022.39,0011.90
2021-08-15 10:14:00,,0830.9,4.99,0.00,29.8,28.8,00.0,38.7,31.6,24.0,0022.38,0011.97
2021-08-15 10:15:00,,0830.9,5.01,0.00,29.8,28.9,00.0,38.7,31.6,23.9,0022.68,0011.99
2021-08-15 10:16:00,,0830.9,5.00,0.00,29.8,28.9,00.0,38.8,31.6,23.8,0023.03,0012.01
2021-08-15 10:17:00,,0830.9,5.00,0.00,29.8,28.7,00.0,38.8,31.6,23.8,0022.50,0011.98
2021-08-15 10:18:00,,0830.9,5.01,0.00,29.7,27.0,00.0,38.8,31.0,23.9,0022.70,0011.96
2021-08-15 10:19:00,,0830.9,5.00,0.00,29.6,26.1,00.0,38.7,30.8,24.2,0022.91,0011.97
2021-08-15 10:20:00,,0830.9,4.99,0.00,29.5,26.3,00.0,38.7,30.9,24.5,0023.38,0011.96
2021-08-15 10:21:00,,0830.9,5.01,0.00,29.4,26.7,00.0,38.7,30.9,24.6,0024.34,0012.01
2021-08-15 10:22:00,,0830.9,5.00,0.00,29.4,27.1,00.0,38.6,31.0,24.5,0025.90,0012.01
2021-08-15 10:23:00,,0830.9,4.99,0.00,29.4,27.4,00.0,38.6,31.1,24.3,0026.87,0012.03
2021-08-15 10:24:00,,0830.9,5.01,0.00,29.4,27.7,00.0,38.6,31.1,24.4,0026.96,0011.99
2021-08-15 10:25:00,,0830.9,4.99,0.00,29.4,27.9,00.0,38.6,31.2,24.4,0026.80,0011.89
2021-08-15 10:26:00,,0830.9,5.00,0.00,29.5,28.0,00.0,38.6,31.2,24.2,0026.72,0011.81
2021-08-15 10:27:00,,0830.9,5.00,0.00,29.5,28.2,00.0,38.6,31.2,24.0,0026.02,0011.74
2021-08-15 10:28:00,,0830.9,5.00,0.00,29.5,28.3,00.0,38.6,31.3,23.8,0027.22,0011.71
2021-08-15 10:29:00,,0831.0,5.01,0.00,29.5,28.4,00.0,38.6,31.3,23.8,0029.83,0011.75
2021-08-15 10:30:00,,0831.1,5.00,0.00,29.6,28.5,00.0,38.6,31.4,23.7,0029.97,0011.76
2021-08-15 10:31:00,,0831.0,4.98,0.00,29.6,28.5,00.0,38.6,31.4,23.5,0029.98,0011.76
2021-08-15 10:32:00,,0830.9,5.02,0.00,29.6,28.6,00.0,38.6,31.4,23.4,0029.75,0011.67
2021-08-15 10:33:00,,0830.9,4.99,0.00,29.7,28.7,00.0,38.7,31.5,23.0,0028.23,0011.60
2021-08-15 10:34:00,,0830.9,5.01,0.00,29.7,28.7,00.0,38.7,31.5,22.4,0027.64,0011.56
2021-08-15 10:35:00,,0830.9,5.01,0.00,29.7,28.8,00.0,38.7,31.5,22.4,0027.63,0011.50
2021-08-15 10:36:00,,0831.0,4.99,0.00,29.8,28.8,00.0,38.7,31.6,22.5,0027.19,0011.51
2021-08-15 10:37:00,,0831.0,5.00,0.00,29.8,28.9,00.0,38.7,31.6,21.4,0026.08,0011.43
2021-08-15 10:38:00,,0831.0,5.01,0.00,29.8,28.9,00.0,38.8,31.7,22.4,0026.39,0011.34
2021-08-15 10:39:00,,0831.0,5.00,0.00,29.8,29.0,00.0,38.8,31.7,21.8,0025.00,0011.27
2021-08-15 10:40:00,,0831.0,5.01,0.00,29.9,29.0,00.0,38.8,31.7,21.7,0022.17,0011.21
2021-08-15 10:41:00,,0831.0,4.99,0.00,29.9,29.1,00.0,38.8,31.8,22.0,0021.61,0011.11
2021-08-15 10:42:00,,0831.0,5.00,0.00,29.9,28.2,00.0,38.8,31.5,22.5,0021.71,0011.09
2021-08-15 10:43:00,,0831.0,5.00,0.00,29.8,26.5,00.0,38.8,31.1,22.8,0021.58,0011.12
2021-08-15 10:44:00,,0831.0,5.00,0.00,29.6,26.3,00.0,38.8,31.0,23.2,0021.66,0011.18
2021-08-15 10:45:00,,0831.0,5.00,0.00,29.6,26.7,00.0,38.8,31.0,23.6,0021.61,0011.19
2021-08-15 10:46:00,,0831.1,5.02,0.00,29.5,27.1,00.0,38.7,31.1,23.8,0021.35,0011.24
2021-08-15 10:47:00,,0831.1,5.00,0.00,29.5,27.4,00.0,38.7,31.1,23.9,0022.28,0011.28
2021-08-15 10:48:00,,0831.1,4.98,0.00,29.5,27.7,00.0,38.7,31.2,24.1,0023.36,0011.42
2021-08-15 10:49:00,,0831.1,5.00,0.00,29.5,27.9,00.0,38.7,31.3,24.2,0023.01,0011.55
2021-08-15 10:50:00,,0831.0,5.00,0.00,29.6,28.1,00.0,38.7,31.3,24.3,0023.09,0011.68
2021-08-15 10:51:00,,0831.0,4.99,0.00,29.6,28.3,00.0,38.7,31.4,24.3,0023.83,0011.72
2021-08-15 10:52:00,,0831.0,5.00,0.00,29.6,28.4,00.0,38.7,31.4,24.2,0025.24,0011.81
2021-08-15 10:53:00,,0831.1,5.00,0.00,29.7,28.5,00.0,38.7,31.4,24.4,0024.70,0011.78
2021-08-15 10:54:00,,0831.1,5.00,0.00,29.7,28.6,00.0,38.7,31.5,24.3,0025.57,0011.77
2021-08-15 10:55:00,,0831.2,5.00,0.00,29.7,28.7,00.0,38.7,31.5,24.3,0026.41,0011.73
2021-08-15 10:56:00,,0831.2,5.01,0.00,29.7,28.8,00.0,38.7,31.6,24.2,0026.45,0011.71
2021-08-15 10:57:00,,0831.2,5.00,0.00,29.8,28.8,00.0,38.8,31.6,24.2,0027.44,0011.72
2021-08-15 10:58:00,,0831.2,4.99,0.00,29.8,28.9,00.0,38.8,31.6,24.2,0027.17,0011.79
2021-08-15 10:59:00,,0831.1,5.01,0.00,29.8,28.9,00.0,38.8,31.7,24.4,0027.07,0011.80
